Year,Month,Day,Hour,Minute,Value (Times are PST for temperature in C)
2008,05,19,09,45,15.00
2008,05,19,09,46,15.00
2008,05,19,09,47,15.00
2008,05,19,09,48,15.00
2008,05,19,09,49,15.00
2008,05,19,09,50,15.00
2008,05,19,09,51,15.00
2008,05,19,09,52,15.00
2008,05,19,09,53,15.00
2008,05,19,09,54,15.00
2008,05,19,09,55,15.00
2008,05,19,09,56,15.00
2008,05,19,09,57,15.00
2008,05,19,09,58,15.00
2008,05,19,09,59,15.00
2008,05,19,10,00,15.00
2008,05,19,10,01,15.00
2008,05,19,10,02,15.00
2008,05,19,10,03,14.90
2008,05,19,10,04,14.80
2008,05,19,10,05,14.80
2008,05,19,10,06,14.80
2008,05,19,10,07,14.80
2008,05,19,10,08,14.90
2008,05,19,10,09,14.90
2008,05,19,10,10,14.90
2008,05,19,10,11,14.90
2008,05,19,10,12,14.90
2008,05,19,10,13,14.90
2008,05,19,10,14,14.90
2008,05,19,10,15,14.90
2008,05,19,10,16,14.90
2008,05,19,10,17,14.90
2008,05,19,10,18,14.90
2008,05,19,10,19,15.00
2008,05,19,10,20,15.00
2008,05,19,10,21,15.00
2008,05,19,10,22,15.00
2008,05,19,10,23,15.00
2008,05,19,10,24,15.00
2008,05,19,10,25,15.00
2008,05,19,10,26,15.10
2008,05,19,10,27,15.10
2008,05,19,10,28,15.10
2008,05,19,10,29,15.20
2008,05,19,10,30,15.20
2008,05,19,10,31,15.20
2008,05,19,10,32,15.20
2008,05,19,10,33,15.20
2008,05,19,10,34,15.20
2008,05,19,10,35,15.20
2008,05,19,10,36,15.30
2008,05,19,10,37,15.30
2008,05,19,10,38,15.30
2008,05,19,10,39,15.30
2008,05,19,10,40,15.30
2008,05,19,10,41,15.40
2008,05,19,10,42,15.40
2008,05,19,10,43,15.40
2008,05,19,10,44,15.50
2008,05,19,10,45,15.50
2008,05,19,10,46,15.60
2008,05,19,10,47,15.60
2008,05,19,10,48,15.60
2008,05,19,10,49,15.60
2008,05,19,10,50,15.60
2008,05,19,10,51,15.60
2008,05,19,10,52,15.60
2008,05,19,10,53,15.70
2008,05,19,10,54,15.70
2008,05,19,10,55,15.70
2008,05,19,10,56,15.80
2008,05,19,10,57,15.80
2008,05,19,10,58,15.80
2008,05,19,10,59,15.80
2008,05,19,11,00,15.80
2008,05,19,11,01,15.90
2008,05,19,11,02,15.90
2008,05,19,11,03,16.00
2008,05,19,11,04,16.00
2008,05,19,11,05,16.10
2008,05,19,11,06,16.10
2008,05,19,11,07,16.00
2008,05,19,11,08,16.00
2008,05,19,11,09,16.00
2008,05,19,11,10,16.00
2008,05,19,11,11,16.00
2008,05,19,11,12,16.00
2008,05,19,11,13,16.10
2008,05,19,11,14,16.10
2008,05,19,11,15,16.10
2008,05,19,11,16,16.10
2008,05,19,11,17,16.20
2008,05,19,11,18,16.20
2008,05,19,11,19,16.30
2008,05,19,11,20,16.30
2008,05,19,11,21,16.30
2008,05,19,11,22,16.30
2008,05,19,11,23,16.30
2008,05,19,11,24,16.30
2008,05,19,11,25,16.30
2008,05,19,11,26,16.30
2008,05,19,11,27,16.30
2008,05,19,11,28,16.20
2008,05,19,11,29,16.20
2008,05,19,11,30,16.10
2008,05,19,11,31,16.10
2008,05,19,11,32,16.00
2008,05,19,11,33,16.00
2008,05,19,11,34,15.90
2008,05,19,11,35,15.90
2008,05,19,11,36,15.90
2008,05,19,11,37,15.90
2008,05,19,11,38,15.90
2008,05,19,11,39,15.90
2008,05,19,11,40,15.90
2008,05,19,11,41,15.90
2008,05,19,11,42,15.90
2008,05,19,11,43,15.30
2008,05,19,11,44,15.20
2008,05,19,11,45,15.20
2008,05,19,11,46,15.10
2008,05,19,11,47,15.00
2008,05,19,11,48,15.00
2008,05,19,11,49,15.00
2008,05,19,11,50,15.00
2008,05,19,11,51,15.00
2008,05,19,11,52,15.00
2008,05,19,11,53,15.00
2008,05,19,11,54,15.00
2008,05,19,11,55,15.00
2008,05,19,11,56,15.00
2008,05,19,11,57,15.00
2008,05,19,11,58,15.00
2008,05,19,11,59,15.00
2008,05,19,12,00,15.00
2008,05,19,12,01,15.00
2008,05,19,12,02,15.00
2008,05,19,12,03,15.00
2008,05,19,12,04,15.00
2008,05,19,12,05,15.00
2008,05,19,12,06,15.00
2008,05,19,12,07,15.00
2008,05,19,12,08,15.00
2008,05,19,12,09,15.10
2008,05,19,12,10,15.20
2008,05,19,12,11,15.20
2008,05,19,12,12,15.30
2008,05,19,12,13,15.30
2008,05,19,12,14,15.30
2008,05,19,12,15,15.40
2008,05,19,12,16,15.50
2008,05,19,12,17,15.60
2008,05,19,12,18,15.70
2008,05,19,12,19,15.80
2008,05,19,12,20,15.80
2008,05,19,12,21,15.90
2008,05,19,12,22,15.90
2008,05,19,12,23,15.90
2008,05,19,12,24,16.00
2008,05,19,12,25,16.10
2008,05,19,12,26,16.20
2008,05,19,12,27,16.20
2008,05,19,12,28,16.20
2008,05,19,12,29,16.30
2008,05,19,12,30,16.40
2008,05,19,12,31,16.40
2008,05,19,12,32,16.50
2008,05,19,12,33,16.60
2008,05,19,12,34,16.70
2008,05,19,12,35,16.80
2008,05,19,12,36,16.90
2008,05,19,12,37,17.00
2008,05,19,12,38,17.10
2008,05,19,12,39,17.30
2008,05,19,12,40,17.40
2008,05,19,12,41,17.40
2008,05,19,12,42,17.50
2008,05,19,12,43,17.50
2008,05,19,12,44,17.60
2008,05,19,12,45,17.60
2008,05,19,12,46,17.60
2008,05,19,12,47,17.60
2008,05,19,12,48,17.60
2008,05,19,12,49,17.50
2008,05,19,12,50,17.50
2008,05,19,12,51,17.50
2008,05,19,12,52,17.40
2008,05,19,12,53,17.30
2008,05,19,12,54,17.30
2008,05,19,12,55,17.20
2008,05,19,12,56,17.10
2008,05,19,12,57,17.10
2008,05,19,12,58,16.90
2008,05,19,12,59,16.80
2008,05,19,13,00,16.60
2008,05,19,13,01,16.50
2008,05,19,13,02,16.50
2008,05,19,13,03,16.40
2008,05,19,13,04,16.40
2008,05,19,13,05,16.50
2008,05,19,13,06,16.50
2008,05,19,13,07,16.60
2008,05,19,13,08,16.70
2008,05,19,13,09,16.70
2008,05,19,13,10,16.70
2008,05,19,13,11,16.70
2008,05,19,13,12,16.70
2008,05,19,13,13,16.70
2008,05,19,13,14,16.70
2008,05,19,13,15,16.80
2008,05,19,13,16,16.80
2008,05,19,13,17,16.90
2008,05,19,13,18,16.90
2008,05,19,13,19,16.90
2008,05,19,13,20,16.90
2008,05,19,13,21,16.90
2008,05,19,13,22,16.90
2008,05,19,13,23,16.90
2008,05,19,13,24,17.00
2008,05,19,13,25,17.00
2008,05,19,13,26,17.00
2008,05,19,13,27,16.90
2008,05,19,13,28,16.90
2008,05,19,13,29,16.80
2008,05,19,13,30,16.80
2008,05,19,13,31,16.70
2008,05,19,13,32,16.70
2008,05,19,13,33,16.80
2008,05,19,13,34,16.80
2008,05,19,13,35,16.90
2008,05,19,13,36,17.00
2008,05,19,13,37,17.10
2008,05,19,13,38,17.10
2008,05,19,13,39,17.20
2008,05,19,13,40,17.30
2008,05,19,13,41,17.40
2008,05,19,13,42,17.50
2008,05,19,13,43,17.50
2008,05,19,13,44,17.40
2008,05,19,13,45,17.30
2008,05,19,13,46,17.20
2008,05,19,13,47,17.10
2008,05,19,13,48,17.00
2008,05,19,13,49,16.90
2008,05,19,13,50,16.90
2008,05,19,13,51,16.90
2008,05,19,13,52,16.90
2008,05,19,13,53,17.00
2008,05,19,13,54,17.00
2008,05,19,13,55,17.10
2008,05,19,13,56,17.00
2008,05,19,13,57,16.90
2008,05,19,13,58,16.80
2008,05,19,13,59,16.70
2008,05,19,14,00,16.80
2008,05,19,14,01,16.80
2008,05,19,14,02,16.90
2008,05,19,14,03,17.00
2008,05,19,14,04,17.10
2008,05,19,14,05,17.00
2008,05,19,14,06,16.90
2008,05,19,14,07,16.80
2008,05,19,14,08,16.70
2008,05,19,14,09,16.60
2008,05,19,14,10,16.60
2008,05,19,14,11,16.60
2008,05,19,14,12,16.60
2008,05,19,14,13,16.50
2008,05,19,14,14,16.40
2008,05,19,14,15,16.50
2008,05,19,14,16,16.50
2008,05,19,14,17,16.50
2008,05,19,14,18,16.50
2008,05,19,14,19,16.50
2008,05,19,14,20,16.50
2008,05,19,14,21,16.60
2008,05,19,14,22,16.50
2008,05,19,14,23,16.40
2008,05,19,14,24,16.30
2008,05,19,14,25,16.30
2008,05,19,14,26,16.30
2008,05,19,14,27,16.20
2008,05,19,14,28,16.20
2008,05,19,14,29,16.20
2008,05,19,14,30,16.20
2008,05,19,14,31,16.20
2008,05,19,14,32,16.20
2008,05,19,14,33,16.20
2008,05,19,14,34,16.20
2008,05,19,14,35,16.20
2008,05,19,14,36,16.20
2008,05,19,14,37,16.20
2008,05,19,14,38,16.20
2008,05,19,14,39,16.20
2008,05,19,14,40,16.20
2008,05,19,14,41,16.30
2008,05,19,14,42,16.30
2008,05,19,14,43,16.40
2008,05,19,14,44,16.40
2008,05,19,14,45,16.50
2008,05,19,14,46,16.60
2008,05,19,14,47,16.60
2008,05,19,14,48,16.70
2008,05,19,14,49,16.70
2008,05,19,14,50,16.80
2008,05,19,14,51,16.90
2008,05,19,14,52,16.90
2008,05,19,14,53,16.90
2008,05,19,14,54,16.80
2008,05,19,14,55,16.70
2008,05,19,14,56,16.70
2008,05,19,14,57,16.70
2008,05,19,14,58,16.70
2008,05,19,14,59,16.70
2008,05,19,15,00,16.60
2008,05,19,15,01,16.50
2008,05,19,15,02,16.50
2008,05,19,15,03,16.40
2008,05,19,15,04,16.30
2008,05,19,15,05,16.30
2008,05,19,15,06,16.20
2008,05,19,15,07,16.10
2008,05,19,15,08,16.00
2008,05,19,15,09,16.10
2008,05,19,15,10,16.10
2008,05,19,15,11,16.10
2008,05,19,15,12,16.10
2008,05,19,15,13,16.10
2008,05,19,15,14,16.10
2008,05,19,15,15,16.10
2008,05,19,15,16,16.10
2008,05,19,15,17,16.10
2008,05,19,15,18,16.00
2008,05,19,15,19,16.00
2008,05,19,15,20,16.10
2008,05,19,15,21,16.10
2008,05,19,15,22,16.20
2008,05,19,15,23,16.20
2008,05,19,15,24,16.30
2008,05,19,15,25,16.50
2008,05,19,15,26,16.60
2008,05,19,15,27,16.70
2008,05,19,15,28,16.80
2008,05,19,15,29,16.90
2008,05,19,15,30,17.00
2008,05,19,15,31,17.10
2008,05,19,15,32,17.10
2008,05,19,15,33,17.20
2008,05,19,15,34,17.20
2008,05,19,15,35,17.30
2008,05,19,15,36,17.30
2008,05,19,15,37,17.40
2008,05,19,15,38,17.40
2008,05,19,15,39,17.40
2008,05,19,15,40,17.40
2008,05,19,15,41,17.40
2008,05,19,15,42,17.40
2008,05,19,15,43,17.50
2008,05,19,15,44,17.50
2008,05,19,15,45,17.50
2008,05,19,15,46,17.50
2008,05,19,15,47,17.40
2008,05,19,15,48,17.40
2008,05,19,15,49,17.40
2008,05,19,15,50,17.30
2008,05,19,15,51,17.30
2008,05,19,15,52,17.30
2008,05,19,15,53,17.30
2008,05,19,15,54,17.30
2008,05,19,15,55,17.30
2008,05,19,15,56,17.30
2008,05,19,15,57,17.30
2008,05,19,15,58,17.30
2008,05,19,15,59,17.30
2008,05,19,16,00,17.30
2008,05,19,16,01,17.30
2008,05,19,16,02,17.30
2008,05,19,16,03,17.30
2008,05,19,16,19,17.20
2008,05,19,16,20,17.20
2008,05,19,16,21,17.20
2008,05,19,16,22,17.20
2008,05,19,16,23,17.20
2008,05,19,16,24,17.20
2008,05,19,16,25,17.20
2008,05,19,16,26,17.20
2008,05,19,16,27,17.10
2008,05,19,16,28,17.10
2008,05,19,16,29,17.10
2008,05,19,16,30,17.10
2008,05,19,16,31,17.10
2008,05,19,16,32,17.10
2008,05,19,16,33,17.10
2008,05,19,16,34,17.10
2008,05,19,16,35,17.10
2008,05,19,16,36,17.10
2008,05,19,16,37,17.10
2008,05,19,16,38,17.10
2008,05,19,16,39,17.10
2008,05,19,16,40,16.90
2008,05,19,16,41,16.80
2008,05,19,16,42,16.80
2008,05,19,16,43,16.80
2008,05,19,16,44,16.80
2008,05,19,16,45,16.80
2008,05,19,16,46,16.80
2008,05,19,16,47,16.80
2008,05,19,16,48,16.80
2008,05,19,16,49,16.80
2008,05,19,16,50,16.80
2008,05,19,16,51,16.80
2008,05,19,16,52,16.80
2008,05,19,16,53,16.80
2008,05,19,16,54,16.80
2008,05,19,16,55,16.80
2008,05,19,16,56,16.80
